Temp
19 19 20 20 21 21 21 22 22 22 23 23 24 24 25 25 26 27 27 28 28 28 28 29 29 29 31 30 30 29 25 24 26 26 27 27 25 24 26 25 25 24 22 21 21
18 19 20 20 21 21 21 22 22 22 22 23 23 24 24 25 26 27 28 29 29 28 29 29 29 29 30 30 31 29 24 27 28 28 27 26 25 24 25 25 24 23 22 21 22
18 19 20 21 21 21 22 22 22 22 23 23 23 24 24 25 26 28 29 29 29 28 28 29 29 29 29 30 32 29 26 29 30 29 29 27 26 25 24 24 24 22 21 21 21
19 19 19 20 21 21 22 22 22 22 23 23 24 24 24 25 24 28 29 29 29 28 29 29 29 29 28 30 31 30 30 31 30 29 29 28 26 25 25 25 25 24 23 22 22
18 19 20 20 20 21 22 22 22 22 22 23 23 24 24 24 26 28 29 28 28 29 29 29 29 29 28 30 31 30 30 30 30 30 29 28 26 25 25 25 24 23 23 23 23
18 19 20 20 20 21 21 22 22 23 23 23 23 23 24 22 28 28 28 28 28 29 29 29 30 31 31 32 30 31 31 30 29 29 28 26 25 25 25 25 25 24 22 23 23
18 19 20 20 21 21 21 22 22 22 23 23 23 23 23 26 28 28 28 28 29 29 29 30 30 31 31 29 32 32 28 28 28 28 28 27 25 25 25 25 25 25 24 23 23
18 19 20 20 21 21 21 22 22 22 22 22 22 22 24 28 27 28 28 29 29 29 30 31 31 31 31 31 32 31 28 26 27 27 27 26 24 25 25 25 25 25 25 24 23
18 19 20 20 21 21 21 22 22 22 22 22 22 21 24 27 28 29 29 29 29 30 30 30 30 31 31 27 25 29 27 27 27 28 27 26 24 26 25 25 25 25 25 25 25
18 19 19 20 21 21 21 22 22 22 21 22 21 21 25 28 28 29 29 29 29 29 30 30 30 25 24 23 24 29 27 29 26 27 28 26 26 27 27 26 25 25 25 25 24
18 19 19 20 21 21 21 22 21 21 21 24 26 26 27 28 27 29 29 29 29 29 26 29 26 24 25 26 27 29 29 29 29 28 27 26 25 26 27 27 26 26 26 26 24
18 19 20 20 21 21 21 22 23 22 21 24 24 24 26 26 25 28 29 28 28 26 27 25 25 26 28 29 30 29 28 29 30 28 27 25 26 27 27 27 26 26 25 25 25
18 19 20 20 21 21 22 24 23 23 21 24 26 26 27 27 27 28 29 29 28 26 26 25 27 29 29 29 28 27 29 29 29 30 29 26 25 26 27 27 26 27 27 26 25
18 19 20 20 21 22 23 23 24 22 16 20 24 27 27 28 27 30 30 30 28 27 26 26 28 30 30 29 29 27 30 32 31 27 26 27 23 24 25 24 25 26 27 26 26
18 19 20 20 20 22 22 23 23 22 19 25 24 28 29 28 29 30 30 30 27 27 26 27 29 29 29 29 29 29 30 32 32 28 27 27 24 24 23 24 25 24 25 26 26
18 19 20 20 22 22 23 23 23 18 20 26 27 26 27 27 28 30 30 30 30 28 27 26 30 29 29 31 29 31 31 25 23 23 24 25 26 23 23 23 24 23 23 25 24
18 19 20 21 22 22 23 23 17 18 24 27 26 25 25 25 27 27 27 27 25 26 25 26 28 29 31 31 29 30 23 22 24 23 23 24 25 24 23 23 25 23 23 24 26
19 20 20 21 21 22 22 18 19 22 23 27 26 25 25 26 26 26 25 25 25 24 22 25 25 29 31 29 29 28 24 22 25 22 24 25 24 25 22 24 25 24 24 24 25
19 20 21 22 21 21 21 16 18 21 26 26 26 25 25 26 27 27 25 24 25 24 24 24 25 28 30 30 28 28 27 24 24 23 22 20 23 23 23 21 22 22 22 22 25
20 20 22 22 21 20 16 15 19 24 26 25 25 25 24 25 27 25 23 26 28 27 26 25 25 28 30 30 28 29 28 27 20 26 25 23 23 22 24 21 21 20 17 20 22
19 19 21 21 21 20 15 15 21 25 26 25 24 24 24 26 26 24 25 28 29 28 25 24 25 28 28 27 26 24 23 22 21 21 22 22 21 20 21 19 17 17 19 19 20
19 16 21 21 19 17 15 20 24 23 25 24 25 25 24 25 25 26 27 28 31 30 28 27 21 24 27 27 27 25 25 20 21 24 23 20 22 19 17 18 18 17 16 17 17
18 19 20 21 17 15 18 22 23 24 25 24 26 26 28 26 26 27 28 30 31 27 27 26 21 22 24 23 26 25 25 22 20 19 23 22 23 17 19 17 19 18 17 18 20
18 15 21 21 22 19 20 20 22 26 24 26 26 26 26 24 23 27 28 30 31 30 29 27 20 22 22 23 23 25 26 23 21 20 22 21 22 20 19 17 16 19 21 18 19
17 16 18 17 18 18 19 20 22 22 25 26 23 24 25 23 24 23 22 25 26 25 26 23 23 24 22 24 24 25 26 26 24 22 22 24 21 19 18 17 17 20 21 22 19
17 16 17 17 18 17 17 20 23 25 23 22 22 23 22 22 23 24 23 22 22 23 22 21 22 24 24 25 23 25 25 25 26 25 23 21 22 20 18 18 18 20 19 20 17
17 16 17 17 17 17 20 21 23 24 24 23 23 21 22 23 24 24 25 23 23 23 22 22 20 20 23 24 24 24 25 25 26 26 23 22 23 20 18 17 17 18 18 19 20
Height
1518 1518 1518 1518 1518 1518 1518 1518 1517 1517 1516 1514 1513 1511 1508 1506 1504 1503 1500 1500 1499 1499 1498 1497 1498 1498 1495 1496 1496 1500 1510 1520 1512 1512 1510 1509 1513 1518 1519 1519 1521 1523 1527 1530 1536
1517 1517 1517 1516 1516 1516 1516 1516 1515 1515 1514 1513 1511 1510 1507 1505 1502 1499 1499 1498 1497 1498 1497 1496 1495 1494 1491 1490 1491 1490 1509 1507 1498 1499 1505 1511 1506 1515 1519 1521 1524 1527 1534 1534 1536
1516 1516 1515 1515 1514 1514 1514 1514 1513 1513 1512 1511 1510 1509 1507 1505 1502 1496 1497 1497 1497 1497 1496 1496 1496 1495 1492 1489 1489 1491 1503 1494 1497 1499 1501 1508 1511 1513 1515 1522 1518 1524 1531 1535 1538
1515 1514 1514 1513 1513 1512 1512 1511 1511 1511 1510 1509 1508 1507 1506 1505 1507 1496 1497 1496 1496 1496 1496 1496 1494 1492 1492 1488 1488 1494 1492 1493 1500 1501 1505 1507 1509 1514 1515 1517 1520 1524 1528 1533 1537
1514 1513 1512 1511 1510 1509 1509 1509 1509 1508 1508 1507 1507 1506 1505 1504 1497 1495 1495 1495 1495 1495 1496 1496 1495 1494 1494 1488 1490 1492 1491 1494 1499 1500 1499 1503 1510 1515 1518 1521 1525 1527 1529 1532 1535
1512 1510 1509 1509 1508 1507 1506 1506 1506 1506 1505 1505 1505 1504 1504 1502 1494 1494 1494 1494 1494 1495 1493 1494 1493 1489 1491 1486 1489 1489 1489 1494 1500 1502 1504 1505 1514 1515 1523 1523 1526 1528 1530 1533 1535
1510 1508 1507 1506 1505 1504 1504 1504 1503 1503 1503 1502 1502 1501 1500 1493 1492 1492 1492 1492 1492 1492 1492 1490 1490 1492 1491 1490 1490 1487 1500 1501 1503 1503 1507 1508 1521 1518 1519 1521 1524 1528 1530 1533 1534
1509 1507 1505 1503 1502 1502 1501 1501 1501 1501 1500 1500 1500 1498 1493 1488 1489 1488 1490 1490 1491 1490 1491 1488 1488 1488 1489 1489 1486 1487 1499 1518 1505 1504 1507 1506 1529 1517 1518 1522 1525 1525 1527 1530 1531
1507 1505 1503 1501 1500 1499 1499 1499 1499 1499 1498 1498 1498 1497 1488 1484 1485 1486 1488 1489 1488 1488 1488 1488 1488 1488 1487 1493 1503 1493 1513 1508 1511 1501 1499 1506 1521 1516 1517 1520 1523 1525 1526 1526 1529
1506 1503 1501 1499 1498 1497 1497 1497 1497 1497 1497 1497 1496 1499 1485 1482 1483 1484 1487 1488 1488 1487 1487 1488 1488 1491 1492 1503 1526 1503 1507 1497 1507 1501 1500 1506 1510 1509 1513 1515 1518 1520 1521 1523 1523
1504 1501 1499 1497 1496 1495 1496 1496 1499 1498 1495 1491 1488 1486 1481 1482 1483 1483 1485 1487 1488 1490 1492 1487 1496 1507 1496 1492 1492 1487 1492 1497 1489 1490 1499 1503 1507 1506 1507 1510 1512 1515 1517 1519 1522
1501 1499 1497 1495 1494 1494 1494 1495 1495 1497 1491 1485 1484 1482 1479 1483 1484 1479 1484 1487 1487 1493 1490 1496 1504 1488 1483 1483 1483 1488 1497 1497 1485 1485 1493 1501 1505 1503 1501 1503 1503 1508 1513 1515 1518
1499 1497 1494 1493 1493 1493 1492 1493 1495 1495 1492 1478 1476 1476 1476 1480 1478 1476 1480 1482 1484 1490 1491 1501 1490 1481 1484 1483 1491 1494 1495 1490 1491 1484 1491 1500 1515 1509 1502 1503 1504 1507 1509 1513 1514
1496 1494 1492 1492 1494 1491 1492 1492 1492 1493 1503 1481 1472 1472 1474 1476 1476 1474 1477 1481 1483 1489 1489 1493 1479 1484 1482 1486 1485 1500 1477 1475 1482 1498 1518 1495 1540 1512 1504 1503 1501 1504 1506 1511 1514
1494 1491 1490 1490 1490 1490 1492 1490 1491 1494 1525 1468 1468 1467 1468 1474 1472 1472 1475 1479 1482 1484 1489 1492 1483 1485 1487 1483 1478 1488 1475 1475 1477 1494 1502 1502 1523 1507 1503 1510 1502 1505 1508 1510 1513
1491 1489 1487 1488 1488 1490 1489 1490 1492 1508 1517 1468 1462 1464 1468 1470 1470 1471 1474 1477 1477 1481 1483 1484 1477 1478 1477 1470 1473 1469 1474 1487 1494 1506 1530 1506 1511 1513 1507 1499 1503 1508 1516 1516 1520
1487 1485 1485 1485 1487 1488 1488 1490 1509 1519 1470 1468 1466 1463 1468 1472 1472 1473 1475 1479 1489 1498 1502 1484 1478 1469 1469 1473 1469 1474 1500 1534 1531 1537 1538 1502 1508 1502 1494 1490 1486 1496 1501 1508 1513
1484 1482 1482 1483 1485 1487 1489 1495 1514 1484 1476 1457 1460 1465 1475 1469 1471 1473 1478 1486 1478 1486 1504 1508 1508 1470 1463 1470 1479 1480 1495 1529 1542 1548 1528 1501 1517 1500 1495 1486 1491 1496 1497 1504 1503
1480 1480 1479 1481 1483 1486 1489 1508 1499 1479 1465 1464 1462 1474 1474 1466 1468 1470 1476 1481 1475 1478 1502 1506 1500 1467 1461 1460 1467 1480 1495 1484 1509 1515 1530 1531 1508 1491 1492 1499 1497 1505 1511 1514 1508
1478 1477 1476 1478 1482 1485 1491 1499 1483 1467 1466 1464 1478 1471 1477 1469 1471 1473 1480 1466 1468 1467 1468 1481 1502 1470 1459 1460 1468 1472 1473 1499 1518 1528 1532 1527 1517 1517 1494 1506 1514 1517 1520 1512 1508
1478 1476 1476 1477 1482 1486 1496 1492 1473 1466 1470 1470 1472 1476 1469 1465 1466 1474 1470 1457 1457 1456 1463 1472 1485 1480 1467 1479 1483 1485 1493 1495 1503 1517 1535 1541 1528 1495 1496 1499 1526 1523 1517 1509 1502
1478 1479 1476 1478 1485 1485 1489 1478 1470 1462 1462 1468 1460 1456 1463 1454 1464 1464 1462 1453 1443 1448 1464 1462 1487 1494 1485 1473 1472 1476 1489 1501 1521 1517 1511 1527 1520 1497 1496 1497 1508 1514 1509 1503 1503
1478 1478 1478 1479 1488 1487 1477 1473 1471 1463 1458 1459 1455 1452 1447 1447 1458 1450 1450 1439 1439 1447 1458 1457 1489 1510 1498 1489 1478 1484 1486 1492 1499 1509 1511 1525 1514 1498 1494 1501 1502 1500 1504 1503 1500
1478 1480 1478 1479 1476 1477 1478 1474 1470 1458 1456 1455 1453 1445 1439 1447 1444 1446 1447 1440 1435 1440 1445 1448 1482 1492 1515 1500 1488 1490 1486 1488 1496 1519 1513 1512 1503 1500 1496 1502 1503 1495 1496 1500 1493
1478 1479 1479 1482 1476 1474 1474 1471 1467 1466 1452 1447 1449 1445 1440 1452 1449 1455 1451 1447 1444 1446 1448 1456 1482 1479 1488 1485 1484 1488 1486 1483 1487 1494 1506 1492 1501 1496 1490 1495 1499 1496 1493 1493 1498
1480 1481 1480 1478 1473 1470 1469 1465 1465 1458 1457 1453 1454 1451 1438 1451 1451 1457 1452 1455 1459 1452 1457 1462 1485 1478 1487 1480 1482 1483 1480 1480 1480 1487 1491 1493 1492 1483 1490 1494 1497 1500 1496 1499 1509
1481 1481 1480 1475 1473 1473 1467 1460 1460 1458 1459 1456 1453 1452 1450 1451 1447 1448 1450 1450 1452 1458 1465 1468 1481 1494 1502 1484 1483 1497 1480 1478 1475 1474 1483 1495 1483 1482 1489 1493 1497 1501 1501 1497 1501
Wind_Speed
5 5 6 6 6 6 6 6 7 8 9 10 11 12 15 16 14 14 13 7 9 12 16 16 17 16 12 8 11 18 3 2 6 7 4 20 10 13 8 23 20 8 34 34 36
6 6 7 7 8 8 8 8 8 8 9 10 10 12 14 17 17 14 9 7 11 12 14 16 20 23 13 5 11 6 5 7 7 5 5 17 25 20 11 23 13 26 31 36 39
8 7 8 9 9 9 9 9 9 9 9 10 10 11 13 15 17 7 8 8 10 10 13 16 18 14 6 3 3 4 5 7 11 11 18 18 19 12 20 15 33 37 41 39 37
9 8 8 9 9 10 10 10 10 10 9 10 10 11 12 11 4 2 1 8 8 10 14 15 17 19 4 2 6 4 10 11 13 21 14 3 15 16 13 19 33 42 45 41 37
11 9 9 9 10 10 10 10 10 10 10 10 10 11 11 8 15 3 5 8 8 10 13 16 22 22 4 1 3 4 7 19 23 29 24 25 16 12 19 24 32 35 43 40 35
13 11 10 9 10 10 10 10 10 10 10 11 10 11 10 8 11 8 10 7 10 12 15 19 21 24 7 6 5 11 8 29 23 18 25 24 23 19 20 29 31 31 38 37 36
14 13 10 9 9 10 10 9 9 9 10 11 10 12 13 21 7 7 9 10 11 13 17 17 18 17 9 5 10 11 18 13 14 14 13 26 11 16 29 31 30 28 31 33 32
15 14 12 9 9 10 9 9 9 8 9 10 10 12 12 13 14 18 9 8 6 9 13 13 15 22 4 12 8 6 13 6 5 11 13 6 6 16 31 28 25 28 30 32 36
16 15 13 10 9 9 9 8 8 8 9 9 8 7 13 7 13 18 12 8 5 8 11 16 20 12 11 4 5 3 5 8 6 10 7 4 6 21 31 28 25 27 28 28 33
16 16 14 10 9 8 8 7 7 8 8 8 10 7 10 9 10 24 18 10 10 14 18 11 9 3 5 5 4 1 5 5 8 9 3 6 9 16 26 27 27 29 31 30 38
16 16 15 10 8 7 7 6 5 2 7 11 7 12 19 8 6 11 10 17 16 14 4 15 3 5 10 5 6 10 4 4 6 10 5 13 11 16 22 24 22 28 27 29 34
16 16 14 10 7 7 7 6 3 3 9 14 21 27 26 24 11 14 15 12 5 6 2 5 5 10 8 7 7 4 10 6 2 12 5 10 14 16 19 22 31 31 28 27 26
17 17 13 8 6 6 8 9 7 14 4 13 21 22 22 6 11 16 20 21 4 3 5 5 11 5 6 9 2 5 5 7 10 5 2 11 1 9 11 14 22 33 35 28 27
17 16 11 6 4 5 2 4 3 3 4 7 8 11 15 12 7 12 18 14 4 8 5 6 12 6 6 10 4 6 5 2 3 5 5 6 4 7 7 10 15 27 25 30 22
18 15 10 6 3 7 5 4 4 1 3 4 5 5 12 12 3 11 16 15 10 8 6 9 5 5 9 13 3 11 7 5 1 4 3 1 5 6 12 11 17 11 21 30 23
19 13 8 9 11 4 1 2 5 5 5 3 9 7 5 8 9 14 17 20 13 3 3 9 10 7 9 15 8 3 1 7 5 3 3 5 5 5 6 11 14 4 10 20 17
18 11 8 10 7 7 3 2 4 3 6 5 6 6 6 6 4 5 7 6 6 3 5 8 7 6 6 3 6 4 7 3 5 4 6 2 4 5 2 4 18 20 21 22 21
15 9 10 9 12 7 5 4 3 4 6 3 5 6 8 5 6 7 7 7 5 5 3 1 8 2 2 8 8 4 9 6 5 3 4 3 5 4 5 5 8 22 33 19 17
11 9 11 8 17 9 4 2 6 7 3 7 5 5 4 5 5 6 9 10 9 8 8 4 7 8 5 4 10 7 1 6 5 2 3 4 5 6 7 5 9 12 3 7 15
9 10 8 13 20 11 4 5 6 3 6 7 3 5 8 6 6 5 8 9 9 12 12 8 4 5 5 6 5 4 2 2 4 1 2 3 4 4 5 11 11 17 15 14 26
6 5 6 15 20 6 4 7 8 10 11 5 5 5 11 8 10 8 11 9 19 9 15 6 4 6 6 3 3 6 5 5 5 5 5 2 5 7 2 3 23 18 16 16 28
3 2 18 20 5 4 3 4 7 13 27 8 7 10 8 10 8 11 14 12 27 24 6 5 5 2 3 4 2 6 4 5 5 6 2 4 5 6 6 9 15 18 14 23 16
4 3 22 21 3 3 6 6 8 15 14 6 5 11 8 8 6 7 6 10 15 7 10 6 3 3 9 6 2 5 3 4 3 2 4 4 5 5 4 16 17 17 21 22 23
1 3 7 21 11 3 2 9 7 14 13 16 8 5 2 7 5 6 7 2 19 12 11 12 4 8 7 6 0 2 2 3 7 3 1 5 5 1 4 9 11 10 7 19 15
1 1 3 3 6 7 5 6 14 9 9 4 4 2 5 4 4 5 4 6 9 12 5 5 5 4 5 4 3 2 2 4 5 6 5 4 6 7 10 8 16 11 9 14 14
4 4 5 5 13 6 6 7 11 8 6 6 7 6 10 7 3 3 2 5 1 7 5 5 1 3 4 4 6 1 4 4 1 7 3 5 3 5 9 11 15 11 8 8 3
6 4 4 4 6 5 3 8 8 10 3 7 3 2 9 4 12 16 16 8 5 4 3 4 6 4 3 3 4 5 4 5 2 2 9 5 5 7 3 10 20 16 11 14 19
Wind_Direction
298 285 281 282 280 280 283 288 295 301 306 307 308 310 311 310 307 294 267 245 289 311 312 308 319 334 339 234 210 189 116 168 173 133 179 135 124 146 134 140 144 164 146 144 158
309 285 281 283 284 284 285 285 289 295 299 302 304 307 310 313 312 278 205 278 294 302 299 312 328 336 324 261 201 125 111 203 196 136 138 150 133 159 153 147 137 123 145 149 156
322 297 280 281 283 282 280 280 283 287 291 297 302 307 311 318 320 284 213 295 280 290 294 307 321 335 304 279 93 128 157 126 130 132 121 135 141 136 131 147 146 145 150 156 158
331 310 290 278 278 280 280 281 282 284 287 292 299 304 308 312 289 225 320 335 294 277 289 313 327 333 282 14 105 105 155 129 125 115 97 89 121 146 153 156 156 158 162 160 171
339 323 304 289 281 277 277 279 282 284 287 291 296 299 308 286 257 239 291 317 293 277 294 312 310 306 260 114 296 187 167 131 130 128 132 125 129 118 118 145 154 156 164 172 180
343 332 314 297 286 279 275 275 279 282 285 288 293 294 293 270 250 272 262 294 290 301 301 308 302 318 102 271 138 199 130 137 141 135 130 115 125 125 147 147 163 162 171 179 180
342 337 324 303 288 281 278 275 274 275 280 285 291 292 277 254 226 241 252 282 286 285 296 313 308 328 349 308 286 188 112 115 138 139 122 113 116 145 163 159 165 176 172 179 187
342 338 329 308 290 282 280 277 271 268 272 280 289 292 267 271 260 250 246 258 259 279 285 293 313 316 346 317 318 156 123 138 236 159 160 108 170 168 168 165 176 180 179 178 183
339 337 331 312 292 280 278 274 268 260 262 271 282 278 268 261 230 216 226 267 291 261 271 284 297 304 326 57 10 8 179 136 176 249 136 128 172 180 175 171 180 187 188 189 190
337 336 331 313 292 279 274 271 266 261 263 268 252 294 254 285 211 213 223 261 271 290 305 315 301 29 354 75 269 173 233 166 172 196 160 156 187 173 181 172 184 192 194 189 193
334 333 330 313 291 277 269 269 282 269 277 235 252 234 282 314 251 216 215 228 249 287 291 313 35 264 257 190 238 219 202 219 192 176 132 176 170 179 187 182 176 188 193 191 192
331 331 327 310 288 273 257 231 174 6 297 281 258 263 270 272 295 263 222 207 216 234 12 354 278 247 248 263 285 296 247 244 314 163 141 174 179 187 192 184 182 183 185 175 179
330 328 324 306 283 261 255 270 263 298 281 281 248 245 251 250 243 261 196 207 198 222 251 178 251 303 284 315 332 258 213 211 188 159 19 116 0 191 212 178 181 186 188 177 180
328 326 318 294 266 237 55 72 210 268 30 274 187 237 236 242 283 230 205 194 219 211 235 233 265 238 247 266 249 299 277 337 115 111 200 165 225 237 177 185 189 179 198 184 199
327 322 304 240 205 187 3 26 300 107 354 227 181 217 199 188 204 220 212 208 215 233 107 247 264 243 219 233 204 247 241 237 89 118 93 296 86 246 130 194 204 188 197 192 189
326 315 283 244 222 176 189 43 142 45 261 263 153 180 124 202 247 185 205 218 244 226 241 240 263 188 224 246 201 256 231 42 50 76 359 240 154 289 178 184 199 161 167 203 191
322 304 261 233 203 198 185 48 55 162 316 198 181 140 165 208 237 166 189 224 192 104 297 318 280 266 190 198 339 95 54 1 358 0 228 236 93 231 297 280 181 179 182 181 162
315 292 258 225 180 191 205 59 210 254 259 263 139 141 178 168 228 188 142 206 248 108 67 219 315 250 257 172 200 213 155 157 202 204 257 8 203 249 169 240 178 175 178 171 175
314 294 268 197 186 184 161 136 213 219 319 355 67 147 263 212 163 148 175 194 221 164 170 189 270 284 228 174 133 266 192 190 121 123 77 296 294 305 158 261 109 101 134 269 229
329 307 268 188 179 176 92 229 240 218 18 12 338 197 205 227 158 147 173 215 221 207 175 231 275 245 304 47 14 150 176 28 10 138 349 277 277 233 311 120 72 106 62 179 205
345 324 144 166 166 165 204 226 280 291 336 338 292 258 240 207 182 196 198 248 203 221 164 162 131 290 52 44 159 6 10 39 118 135 161 195 265 215 87 57 118 130 135 157 198
339 2 165 159 127 200 220 238 302 301 299 274 248 249 226 205 176 198 206 203 205 212 170 188 140 120 175 191 328 113 154 108 104 297 91 122 280 55 122 88 76 125 143 103 162
342 297 179 178 152 255 274 272 257 276 283 300 283 293 262 205 190 170 188 265 160 130 173 177 40 42 353 6 19 72 66 135 122 94 19 139 249 55 52 77 91 112 139 114 107
11 13 169 215 231 174 306 288 266 256 259 269 281 272 43 33 32 163 153 20 105 109 122 92 122 144 177 210 312 23 40 112 111 83 272 219 296 356 244 127 136 103 143 114 124
184 276 41 284 286 257 190 269 290 308 316 298 22 314 186 66 57 12 19 15 35 11 66 96 142 127 113 124 122 233 299 287 115 194 170 225 200 202 208 160 163 139 131 101 118
31 30 332 282 275 258 204 243 258 304 331 356 108 317 80 82 136 87 252 60 280 348 62 12 176 90 30 33 25 2 284 274 258 103 62 158 232 193 107 129 169 174 176 150 157
348 315 276 305 330 352 261 248 208 192 152 123 236 44 55 117 116 111 94 126 167 139 89 88 134 96 238 17 7 9 243 212 190 199 154 168 202 136 118 160 173 167 161 171 170